THA107 VTCC-VTBS

Flight info

Callsign THA107
Flight time N/A
Altitude 35000
Route PANTA2N PANTA Y7 BLAFF NORTA1C
Aircraft B772/H-SDE2E3FGHIJ5LORVWXY/LB1D1

Departure

Time 2026-05-04 07:49
Airport Chiang Mai International Airport (VTCC)

Arrival

Time N/A
Airport Suvarnabhumi Airport (VTBS)
Time Latitude Longitude Altitude Speed Heading
2026-05-04 07:33 18.76844 98.96728 1036 ft 0 kts 90°
2026-05-04 07:38 18.76844 98.96705 1036 ft 4 kts 99°
2026-05-04 07:39 18.76852 98.96677 1036 ft 4 kts 117°
2026-05-04 07:39 18.76867 98.96655 1036 ft 4 kts 146°
2026-05-04 07:39 18.76886 98.96647 1036 ft 0 kts 180°
2026-05-04 07:42 18.76874 98.96647 1035 ft 2 kts 180°
2026-05-04 07:43 18.76859 98.96647 1036 ft 2 kts 180°
2026-05-04 07:43 18.76844 98.96647 1036 ft 3 kts 180°
2026-05-04 07:43 18.76816 98.96647 1036 ft 5 kts 180°
2026-05-04 07:43 18.76771 98.96647 1033 ft 7 kts 182°
2026-05-04 07:44 18.76736 98.96610 1034 ft 9 kts 259°
2026-05-04 07:44 18.76720 98.96537 1034 ft 11 kts 236°
2026-05-04 07:44 18.76639 98.96517 1036 ft 13 kts 180°
2026-05-04 07:44 18.76540 98.96516 1035 ft 15 kts 180°
2026-05-04 07:45 18.76431 98.96516 1036 ft 16 kts 180°
2026-05-04 07:45 18.76317 98.96517 1033 ft 16 kts 180°
2026-05-04 07:45 18.76200 98.96516 1036 ft 17 kts 180°
2026-05-04 07:45 18.76079 98.96516 1033 ft 17 kts 179°
2026-05-04 07:46 18.75958 98.96516 1034 ft 17 kts 180°
2026-05-04 07:46 18.75837 98.96516 1034 ft 17 kts 180°
2026-05-04 07:46 18.75716 98.96515 1035 ft 17 kts 180°
2026-05-04 07:46 18.75595 98.96515 1035 ft 17 kts 180°
2026-05-04 07:47 18.75478 98.96488 1036 ft 17 kts 206°
2026-05-04 07:47 18.75378 98.96426 1035 ft 16 kts 212°
2026-05-04 07:47 18.75320 98.96369 1036 ft 9 kts 251°
2026-05-04 07:49 18.79450 98.96277 2540 ft 185 kts
2026-05-04 07:49 18.80758 98.96284 3274 ft 195 kts
2026-05-04 07:49 18.82196 98.96294 3569 ft 225 kts
2026-05-04 07:50 18.83841 98.96428 3791 ft 247 kts 17°
2026-05-04 07:50 18.85326 98.97344 4412 ft 251 kts 47°
2026-05-04 07:50 18.86291 98.98882 5088 ft 254 kts 69°
2026-05-04 07:50 18.86533 99.00705 5743 ft 251 kts 91°
2026-05-04 07:51 18.86498 99.02581 6340 ft 258 kts 91°
2026-05-04 07:51 18.86481 99.04493 6979 ft 262 kts 91°
2026-05-04 07:51 18.86179 99.06396 7404 ft 270 kts 115°
2026-05-04 07:51 18.84989 99.07969 7796 ft 283 kts 147°
2026-05-04 07:52 18.83141 99.08668 8424 ft 286 kts 177°
2026-05-04 07:52 18.81149 99.08661 8968 ft 292 kts 183°
2026-05-04 07:52 18.79109 99.08621 9752 ft 294 kts 183°
2026-05-04 07:52 18.77058 99.08600 10481 ft 296 kts 182°
2026-05-04 07:53 18.74985 99.08585 10892 ft 300 kts 183°
2026-05-04 07:54 18.58870 99.08525 15553 ft 354 kts 183°
2026-05-04 07:55 18.56392 99.08517 16543 ft 359 kts 183°
2026-05-04 07:55 18.53873 99.08509 17541 ft 365 kts 183°
2026-05-04 07:55 18.51333 99.08675 18303 ft 372 kts 169°
2026-05-04 07:55 18.48921 99.09770 19010 ft 387 kts 148°
2026-05-04 07:56 18.46806 99.11554 19705 ft 393 kts 143°
2026-05-04 07:56 18.44698 99.13417 20460 ft 399 kts 143°
2026-05-04 07:56 18.42553 99.15304 21321 ft 403 kts 143°
2026-05-04 07:56 18.40388 99.17197 22192 ft 407 kts 143°
2026-05-04 07:57 18.38194 99.19103 23019 ft 411 kts 143°
2026-05-04 07:57 18.35962 99.21033 23746 ft 417 kts 143°
2026-05-04 07:57 18.33706 99.22975 24418 ft 421 kts 143°
2026-05-04 07:57 18.31455 99.24913 25082 ft 426 kts 143°
2026-05-04 07:58 18.29152 99.26896 25781 ft 430 kts 143°
2026-05-04 07:58 18.26824 99.28897 26473 ft 434 kts 143°
2026-05-04 07:58 18.24474 99.30914 27143 ft 438 kts 144°
2026-05-04 07:58 18.21923 99.32664 27745 ft 438 kts 159°
2026-05-04 07:59 18.19049 99.33690 28318 ft 438 kts 166°
2026-05-04 07:59 18.16110 99.34593 28918 ft 442 kts 166°
2026-05-04 07:59 18.13142 99.35512 29541 ft 446 kts 166°
2026-05-04 07:59 18.10161 99.36458 30119 ft 450 kts 165°
2026-05-04 08:00 18.07151 99.37437 30589 ft 455 kts 165°
2026-05-04 08:00 18.04116 99.38441 31052 ft 459 kts 165°
2026-05-04 08:00 18.01061 99.39460 31548 ft 462 kts 165°
2026-05-04 08:02 17.79571 99.46644 34871 ft 461 kts 165°
2026-05-04 08:02 17.73490 99.48671 34874 ft 456 kts 165°
2026-05-04 08:03 17.67467 99.50674 34878 ft 458 kts 165°
2026-05-04 08:03 17.61381 99.52696 34878 ft 459 kts 165°
2026-05-04 08:04 17.55276 99.54722 34869 ft 460 kts 165°
2026-05-04 08:04 17.49176 99.56747 34853 ft 459 kts 164°
2026-05-04 08:05 17.43092 99.58768 34852 ft 458 kts 164°
2026-05-04 08:05 17.37024 99.60781 34846 ft 456 kts 164°
2026-05-04 08:06 17.30973 99.62784 34841 ft 456 kts 164°
2026-05-04 08:06 17.24967 99.64773 34836 ft 455 kts 164°
2026-05-04 08:08 17.00803 99.72759 34840 ft 455 kts 164°
2026-05-04 08:11 16.73583 99.81742 34844 ft 455 kts 164°
2026-05-04 08:11 16.65545 99.84398 34832 ft 455 kts 164°
2026-05-04 08:12 16.59506 99.86393 34839 ft 455 kts 164°
2026-05-04 08:12 16.53459 99.88387 34838 ft 455 kts 164°
2026-05-04 08:13 16.47408 99.90382 34838 ft 455 kts 164°
2026-05-04 08:13 16.41362 99.92375 34833 ft 455 kts 165°
2026-05-04 08:14 16.35317 99.94366 34836 ft 456 kts 165°
2026-05-04 08:16 16.11186 100.02335 34839 ft 455 kts 165°
2026-05-04 08:16 16.05141 100.04327 34834 ft 455 kts 165°
2026-05-04 08:17 15.99076 100.06326 34840 ft 456 kts 165°
2026-05-04 08:17 15.93060 100.08304 34836 ft 456 kts 165°
2026-05-04 08:19 15.68831 100.16281 34767 ft 453 kts 165°
2026-05-04 08:20 15.65823 100.17271 34292 ft 453 kts 165°
2026-05-04 08:20 15.62830 100.18254 33871 ft 450 kts 166°
2026-05-04 08:20 15.59857 100.19230 33373 ft 447 kts 166°
2026-05-04 08:20 15.56898 100.20199 32904 ft 444 kts 165°
2026-05-04 08:21 15.53963 100.21166 32447 ft 441 kts 166°
2026-05-04 08:21 15.51044 100.22123 32006 ft 438 kts 166°
2026-05-04 08:21 15.48151 100.23070 31554 ft 435 kts 166°
2026-05-04 08:21 15.45279 100.24012 31138 ft 432 kts 166°
2026-05-04 08:22 15.42418 100.24948 30695 ft 429 kts 166°
2026-05-04 08:22 15.39575 100.25878 30252 ft 427 kts 165°
2026-05-04 08:24 15.20952 100.33814 27039 ft 405 kts 152°
2026-05-04 08:24 15.18541 100.35316 26604 ft 402 kts 151°
2026-05-04 08:24 15.16149 100.36801 26173 ft 399 kts 151°
2026-05-04 08:24 15.13774 100.38268 25736 ft 397 kts 152°
2026-05-04 08:25 15.11404 100.39726 25308 ft 395 kts 152°
2026-05-04 08:25 15.09051 100.41169 24876 ft 393 kts 151°
2026-05-04 08:25 15.06703 100.42609 24448 ft 391 kts 151°
2026-05-04 08:25 15.04401 100.44019 24034 ft 389 kts 151°
2026-05-04 08:26 15.02072 100.45444 23611 ft 387 kts 151°
2026-05-04 08:27 14.86195 100.55158 20594 ft 369 kts 151°
2026-05-04 08:28 14.83987 100.56507 20180 ft 367 kts 151°
2026-05-04 08:28 14.81794 100.57846 19771 ft 365 kts 151°
2026-05-04 08:28 14.79607 100.59182 19360 ft 364 kts 151°
2026-05-04 08:28 14.77433 100.60510 18939 ft 363 kts 151°
2026-05-04 08:29 14.75264 100.61835 18548 ft 362 kts 151°
2026-05-04 08:29 14.73100 100.63136 18307 ft 357 kts 154°
2026-05-04 08:29 14.70869 100.64199 18187 ft 348 kts 160°
2026-05-04 08:31 14.55175 100.68943 16189 ft 330 kts 166°
2026-05-04 08:33 14.40052 100.73373 12683 ft 308 kts 165°
2026-05-04 08:33 14.38001 100.73977 12122 ft 304 kts 165°
2026-05-04 08:35 14.25133 100.77752 8229 ft 241 kts 162°
2026-05-04 08:35 14.23483 100.78236 7725 ft 250 kts 162°
2026-05-04 08:35 14.21848 100.78714 7593 ft 235 kts 163°
2026-05-04 08:35 14.20313 100.79162 7205 ft 225 kts 162°
2026-05-04 08:37 14.11121 100.81857 5499 ft 230 kts 162°
2026-05-04 08:37 14.09641 100.82289 5218 ft 213 kts 162°
2026-05-04 08:37 14.08222 100.82706 5009 ft 214 kts 162°
2026-05-04 08:38 14.06717 100.83150 5051 ft 240 kts 162°
2026-05-04 08:38 14.05062 100.83636 5065 ft 248 kts 163°
2026-05-04 08:38 14.03446 100.84104 5038 ft 234 kts 162°
2026-05-04 08:40 13.92839 100.82361 4313 ft 230 kts 192°
2026-05-04 08:40 13.91298 100.81953 4104 ft 227 kts 192°
2026-05-04 08:40 13.89789 100.81552 3902 ft 224 kts 193°
2026-05-04 08:41 13.88275 100.81152 3633 ft 225 kts 193°
2026-05-04 08:41 13.86751 100.80748 3365 ft 226 kts 193°
2026-05-04 08:41 13.85224 100.80345 3070 ft 226 kts 194°
2026-05-04 08:41 13.83738 100.79953 2774 ft 213 kts 194°
2026-05-04 08:42 13.82354 100.79584 2497 ft 199 kts 194°
2026-05-04 08:42 13.81068 100.79244 2247 ft 183 kts 194°
2026-05-04 08:42 13.79886 100.78932 2081 ft 169 kts 194°
2026-05-04 08:42 13.78779 100.78639 1842 ft 157 kts 193°
2026-05-04 08:43 13.77740 100.78367 1635 ft 148 kts 195°
2026-05-04 08:43 13.76789 100.78116 1448 ft 132 kts 195°
2026-05-04 08:43 13.75926 100.77888 1323 ft 130 kts 194°
2026-05-04 08:43 13.75060 100.77658 1139 ft 127 kts 195°
2026-05-04 08:44 13.74204 100.77432 967 ft 129 kts 194°
2026-05-04 08:44 13.73333 100.77201 813 ft 125 kts 194°
2026-05-04 08:46 13.68097 100.75822 17 ft 59 kts 194°